Orbital Elements at Epoch 2459200.5 (2020-Dec-17.0) TDB
Reference: JPL 27 (heliocentric ecliptic J2000)
Element | Value | Uncertainty (1-sigma) | Units |
e | .1655977946772549 | 4.03e-08 | |
a | 2.763181336790202 | 1.9e-08 | au |
q | 2.305604601124395 | 1.1197e-07 | au |
i | 8.741081403557827 | 4.3932e-06 | deg |
node | 203.1412457139784 | 2.9176e-05 | deg |
peri | 98.51236052476307 | 3.1903e-05 | deg |
M | 272.7409877937445 | 1.5429e-05 | deg |
tp | 2459607.149552590526 (2022-Jan-27.64955259) | 7.3976e-05 | TDB |
period | 1677.693056925238 4.59 | 1.7304e-05 4.738e-08 | d yr |
n | .2145803718469119 | 2.2132e-09 | deg/d |
Q | 3.220758072456008 | 2.2146e-08 | au |
|
| | Orbit Determination Parameters
Additional Information
|